YZ-1 R/B (43605 NORAD) Tracking and Keplerian Element Data

This shows tracking and keplerian element data for the satellite.

Feedback or suggestion? Click here.




ElementValue
Catalog43605
NameYZ-1 R/B
Epoch Orbit42
Epoch Day261.19858744
Epoch Year2018
RAAN277.3746
Inclination54.7609
Eccentricity0.0036394
Argument of Perigee358.2587
Mean Anonmoly1.7676
Mean Motion1.78800056
Decay Rate1.4E-07
L11 43605U 18067D 18261.19858744 .00000014 00000-0 00000+0 0 9998
L22 43605 54.7609 277.3746 0036394 358.2587 1.7676 1.78800056 428

Live tracking and technical data element details for YZ-1 R/B (NORAD 43605). YZ-1 R/B can be tracked NOW for your location showing map with azimuth and elevation plus other details from your city location.

Track the satellite on the map from your city or location and see movement details for azimuth, elevation, latitude, longitude, range, height, and movement on the map or in text.







IsCatalogInMostPopularTable: catalog: 43605, numindb: 62
Update: records affected: 1



GetName: 43605 YZ-1 R/B

Hit Count: updated at: Thu, 15 Nov 2018 04:45:32 GMT